sat.trackr.live / text

‹ back to catalog

STARLINK-31880

NORAD 59661 · 2024-084H

PAYLOAD ACTIVE UNKNOWN

§ Identity

Operator
Country
US
Launch date
2024-05-06
Launch site
AFETR
Launch vehicle
Mass (kg)
RCS (m²)

Purposes: comms

External: N2YO · Heavens-Above · Gunter

§ Orbital elements

Epoch: 2026-05-24T22:08:15.679680Z

Period
94.27 min
Inclination
43.0001°
Eccentricity
0.0001436
Mean motion
15.27585567 rev/d
Perigee alt
482.0 km
Apogee alt
484.0 km
Semi-major
6,861.2 km
B*
2.0081e-4
RAAN
327.6746°
Arg perigee
268.1167°
Mean anomaly
91.9520°
Rev number
11,607

§ Raw data

STARLINK-318801 59661U 24084H   26144.92240370  .00005269  00000+0  20081-3 0  99942 59661  43.0001 327.6746 0001436 268.1167  91.9520 15.27585567116079

JSON: /api/v1/satellites/59661 · /tle

For live sub-satellite position, see the globe view (requires WebGL).

§ Visibility from observer

Set your observer location to see the next 7 days of passes ≥ 10°. The values pass through the URL so the page stays shareable.

No JS? Fill the form by hand. The geolocation button needs JavaScript.